This is the latest recevied weather packets stored in our database for station/object K4KMJ. If no packets are shown the sender has not sent any weather packets the latest 10 day(s).
| Time | Temp. | Humidity | Pressure | Rain* | Wind** | Luminosity | Snow |
|---|---|---|---|---|---|---|---|
| 1778043485 | 17.78° C | 92% | 1018.7 hPa | 0 mm | - | 0 W/m² | - |
| 1778043182 | 17.78° C | 92% | 1018.9 hPa | 0 mm | - | 0 W/m² | - |
| 1778042879 | 17.78° C | 92% | 1019 hPa | 0 mm | - | 0 W/m² | - |
| 1778042576 | 17.78° C | 92% | 1018.6 hPa | 0 mm | - | 0 W/m² | - |
| 1778042273 | 17.78° C | 91% | 1018.9 hPa | 0 mm | - | 0 W/m² | - |
| 1778041970 | 17.78° C | 91% | 1018.8 hPa | 0 mm | - | 0 W/m² | - |
| 1778041669 | 18.33° C | 91% | 1018.9 hPa | 0 mm | - | 0 W/m² | - |
| 1778041368 | 18.33° C | 90% | 1018.8 hPa | 0 mm | - | 0 W/m² | - |
| 1778041066 | 18.33° C | 90% | 1018.8 hPa | 0 mm | - | 0 W/m² | - |
| 1778040762 | 18.33° C | 90% | 1018.6 hPa | 0 mm | - | 0 W/m² | - |
| 1778040460 | 18.33° C | 90% | 1018.9 hPa | 0 mm | - | 0 W/m² | - |
| 1778040157 | 18.89° C | 89% | 1018.4 hPa | 0 mm | - | 0 W/m² | - |
| 1778039853 | 18.33° C | 89% | 1018.4 hPa | 0 mm | - | 0 W/m² | - |
| 1778039550 | 18.89° C | 89% | 1018.7 hPa | 0 mm | - | 0 W/m² | - |
| 1778039247 | 18.89° C | 88% | 1018.4 hPa | 0 mm | - | 0 W/m² | - |
| 1778038945 | 18.89° C | 88% | 1018.5 hPa | 0 mm | - | 0 W/m² | - |
| 1778038642 | 18.89° C | 88% | 1018.5 hPa | 0 mm | - | 0 W/m² | - |
| 1778038339 | 19.44° C | 88% | 1018.5 hPa | 0 mm | - | 0 W/m² | - |
| 1778038036 | 19.44° C | 87% | 1018.5 hPa | 0 mm | - | 0 W/m² | - |
| 1778037733 | 19.44° C | 87% | 1018.7 hPa | 0 mm | - | 0 W/m² | - |
| 1778037429 | 19.44° C | 87% | 1018.6 hPa | 0 mm | - | 0 W/m² | - |
| 1778037127 | 19.44° C | 87% | 1018.5 hPa | 0 mm | - | 0 W/m² | - |
| 1778036825 | 19.44° C | 86% | 1018.4 hPa | 0 mm | - | 0 W/m² | - |
| 1778036522 | 18.89° C | 86% | 1018.5 hPa | 0 mm | - | 0 W/m² | - |
| 1778036218 | 18.89° C | 85% | 1018.4 hPa | 0 mm | - | 0 W/m² | - |
* Rain latest hour (hover to see other rain measurements)
** Current wind speed in m/s (hover to see current wind gust speed)